Showing default

COSMOS 1563, 15002

Orbit data source: Space-Track

COSMOS 1563, 15002 is a payload satellite owned by GUKOS (CIS) in LEO that was launched on Mon, 28 May 1984 UTC via a KOSMOS 11K65M launch vehicle from the Plesetsk Missile And Space Complex (PKMTR). Payloads include a variety of satellites, spacecraft, and rockets equipped with specific instruments for various scientific and technological missions. These include communications satellites like Starlink; space stations such as the ISS; scientific satellites like the Hubble; Earth observation satellites from companies like Planet Labs, Umbra, and HawkEye 360; GPS; miniature CubeSats for education and research; and military/defense satellites.

Loading next visibility...
COSMOS 1563 details
Identifier
15002, 1984-052E
Orbit
LEO
Last TLE update1 day ago
Origin
Flag of CISGUKOS (CIS)
ManufacturerNPO PM
MissionDefense Communications
Bus & MotorSTRELA-1 11F625, Unknown motor
Mass60 kg wet, 60 kg dry
Launch date (UTC)
1984-05-28 (41 years ago)
Launch vehicle
KOSMOS 11K65M
Launch site
Plesetsk Missile And Space Complex (PKMTR)
Object type
Payload
Rocket body
Debris
Shape & HBRSphere, 0.8 m
Radar Cross Section0.588 m², Medium (>0.1 m² and < 1m²)

Expand to show TLE details & history

TLE from 1 day ago
0 COSMOS 1563
1 15002U 84052E   25035.49128704  .00000005  00000-0  13472-3 0  9992
2 15002  74.0108 188.7041 0023959  59.8303 358.0765 12.51829596591923
Epoch: 2025-02-04T11:47Z
Definitive object data (Epoch: 2025-02-04T11:47:27.2Z)
Latitude54.62034°
Longitude-99.38184°
Altitude1,446.705 km
Speed7.152 km/s
True Right ascension14h 09m 30s
True Declination54° 28' 20"
Sunlit
Object was in daylight at TLE epoch
Visualization TLE readout
Latitude39.16841°
Longitude41.88962°
Altitude1,458.93 km
Speed7.138 km/s
Apparent Right ascension02h 42m 29s
Apparent Declination7° 51' 59"
Sunlit
Object is in daylight
Visualization observer readout
Local Sidereal Time19:03:15
Azimuth67.542° E
Elevation-13.354°
Doppler factor1
Orbital elements
Apogee altitude1,473.453 km
Perigee altitude1,435.919 km
Semi-major axis7,832.823 km
Eccentricity0.0023959
Inclination74.0108°
RAAN188.7041°
Arg. of periapsis59.8303°
True anomaly358.06726°
Mean anomaly358.0765°
Eccentric anomaly358.07188°
Mean motion3.13087 °/min
BSTAR0.00013472
Orbital period114.98 mins
Loading maneuver chart data...
Loading historical data...
Loading historical data...
Loading historical data...
Loading historical data...
Loading historical data...
Loading historical data...
Loading historical data...

COSMOS 1563 Visibility forecast

Observer location: undefined°, undefined

Span
Click to sort rows by Start time (UTC) header in descending order
Start Az.
Max El. time (UTC)
Max El. Az.
Max El.
End time (UTC)
End Az.
5 mins2025-02-05 18:46:20.584Z24.603° NE2025-02-05 18:48:20.584Z38.908° NE12.24°2025-02-05 18:51:20.584Z60.354° ENE
15 mins2025-02-05 20:41:20.584Z351.41° N2025-02-05 20:48:20.584Z65.876° ENE39.711°2025-02-05 20:56:20.584Z142.131° SSE
13 mins2025-02-05 22:39:20.584Z316.535° NNW2025-02-05 22:45:20.584Z263.3° W27.581°2025-02-05 22:52:20.584Z207.445° SW
11 mins2025-02-06 09:38:20.584Z134.806° SE2025-02-06 09:43:20.584Z90.009° ESE23.694°2025-02-06 09:49:20.584Z43.307° NE
15 mins2025-02-06 11:32:20.584Z212.543° SW2025-02-06 11:39:20.584Z280.39° WNW42.122°2025-02-06 11:47:20.584Z12.829° NNE
6 mins2025-02-06 13:36:20.584Z295.789° NW2025-02-06 13:39:20.584Z318.568° NNW14.175°2025-02-06 13:42:20.584Z340.718° N
|